Tracking 30743 objects as of 21-Jun-2025
HD Live streaming from Space Station
objects crossing your sky now

ESSA 3 (TOS-A)

Track ESSA 3 (TOS-A) now!
10-day predictions
ESSA 3 (TOS-A) is classified as:


NORAD ID: 2435
Int'l Code: 1966-087A
Perigee: 1,392.7 km
Apogee: 1,493.3 km
Inclination: 101.1 °
Period: 114.6 minutes
Semi major axis: 7814 km
RCS: 0.8135 m2 (medium)
Launch date: October 2, 1966
Source: United States (US)
Launch site: AIR FORCE WESTERN TEST RANGE (AFWTR)
Your satellite tracking list
Your tracking list is empty




NASA's NSSDC Master Catalog

Two Line Element Set (TLE):
1 02435U 66087A   25171.56882997 -.00000047  00000-0 -34038-4 0  9996
2 02435 101.0892  90.9113 0064401  40.1107 132.0956 12.56874573693572
Source of the keplerian elements: AFSPC